Tracking 29528 objects as of 12-Sep-2024
HD Live streaming from Space Station
objects crossing your sky now

OBJECT J

Track OBJECT J now!
10-day predictions


NORAD ID: 54690
Int'l Code: 2022-167J
Perigee: 517.1 km
Apogee: 529.2 km
Inclination: 97.6 °
Period: 94.9 minutes
Semi major axis: 6894 km
RCS: Unknown
Launch date: December 9, 2022
Source: People's Republic of China (PRC)
Launch site: Yellow Sea Launch Area, China (YSLA)
Your satellite tracking list
Your tracking list is empty




NASA's NSSDC Master Catalog

Two Line Element Set (TLE):
1 54690U 22167J   24255.90446294  .00023523  00000-0  12019-2 0  9998
2 54690  97.6157  37.7670 0008788 206.9697 153.1081 15.16647820 97253
Source of the keplerian elements: AFSPC